If you wish to contribute or participate in the discussions about articles you are invited to join SKYbrary as a registered user

 Actions

Asuncion/Silvio Pettirossi International Airport

From SKYbrary Wiki

SGAS
Airport
ICAO: SGAS – IATA: ASU
Summary
Name Asuncion/Silvio Pettirossi International Airport
Region South America and Caribbean
Territory Paraguay PY.gif
Location Luque, Central
Serving Asuncion
Elevation 89.002 m
292 ft
292 ft89.002 m
Type medium airport
Coordinates 25° 14' 23.46" S, 57° 31' 8.88" W
Runways
Designator Length Width Surface ROPS
2/20 3353 m11,000.656 ft
46 m150.919 ft
ASP yes/yes


METAR
Observation SGAS 230000Z 19003KT CAVOK 22/17 Q1014
Station Asuncion / Aeropuerto
Date/Time 23 March 2019 00:00:00
Wind direction 190°
Wind speed 03 kts
Lowest cloud amount clouds and visibility OK
Temperature 22°C
Dew point 17°C
Humidity 73%
QNH 1014 hPa
Weather condition n/a

Maps

Terrain

Loading map...

Airport Layout

Loading map...


Accidents & Serious Incidents at or in vicinity of SGAS

None on SKYbrary